Preview of NWS' New Version of Forecast
This preview is not operational and should not be used for support decisions.

Regional Weather Roundup (RWR)

Issued by National Weather Service (NWS)

                            
000
ASUS43 KDTX 201910
RWRMI 
MICHIGAN HOURLY REGIONAL WEATHER ROUNDUP
NATIONAL WEATHER SERVICE DETROIT/PONTIAC MI
300 PM EDT THU JUN 20 2019

NOTE: "FAIR" INDICATES FEW OR NO CLOUDS BELOW 12,000 FEET WITH NO
SIGNIFICANT WEATHER AND/OR OBSTRUCTION TO VISIBILITY.

MIZ047>049-052>055-059>063-066>070-074>076-081>083-202000-
SOUTHEAST LOWER MICHIGAN
  
CITY           SKY/WX    TMP DP  RH WIND       PRES   REMARKS
ADRIAN         LGT RAIN  62  60  93 NE12      29.61R FOG              
ALMA           CLOUDY    65  61  89 N10       29.70R                  
ANN ARBOR      LGT RAIN  63  62  97 NE10      29.60S FOG              
BAD AXE        RAIN      55  54  95 N9        29.67S                  
CARO           LGT RAIN  59  58  96 N7        29.67S                  
DETROIT CITY   LGT RAIN  65  61  87 N12       29.60S FOG              
DETROIT        LGT RAIN  65  62  90 N13       29.60S FOG              
FLINT          CLOUDY    63  59  87 N9G22     29.65R                  
GROSSE ILE     LGT RAIN  63  62  96 N9        29.59R                  
HILLSDALE      CLOUDY    62  60  93 N8        29.62R FOG              
HOWELL         LGT RAIN  62  59  90 N6        29.64S                  

CITY           SKY/WX    TMP DP  RH WIND       PRES   REMARKS
JACKSON        CLOUDY    65  62  90 N7        29.63S                  
LAMBERTVILLE   LGT RAIN N/A N/A N/A N9        29.58S                  
LANSING        LGT RAIN  62  60  93 N10       29.67R                  
LAPEER         RAIN      62  61  97 N7        29.66R                  
MASON          CLOUDY    64  61  93 N8G20     29.66R                  
MONROE         DRIZZLE   63  62  98 NE6       29.58S                  
MT. CLEMENS    LGT RAIN  65  65 100 N13       29.60R                  
PONTIAC        LGT RAIN  63  61  93 N12       29.62R                  
PORT HOPE        N/A     54  51  90 N13       29.68R                  
PORT HURON     LGT RAIN  64  59  82 N10       29.62S                  
TRI CITIES     LGT RAIN  60  57  89 NE18G29   29.69S                  
MIDLAND        DRIZZLE   62  58  87 NE6       29.69S                  
TROY           DRIZZLE   64  61  88 N6        29.63S                  
SAGINAW HB     LGT RAIN  61  57  88 N18       29.68S                  
$$
MIZ043>046-050>051-056>058-064>065-071>073-077>080-202000-
SOUTHWEST LOWER MICHIGAN
  
CITY           SKY/WX    TMP DP  RH WIND       PRES   REMARKS
BATTLE CREEK   CLOUDY    64  60  87 N10       29.68R                  
BENTON HARBOR  CLOUDY    63  59  87 VRB6      29.71R                  
BIG RAPIDS     CLOUDY    69  56  62 NE8       29.72R                  
COLDWATER      CLOUDY    64  64  97 N9        29.65R                  
FREMONT        CLOUDY    69  57  64 NE13      29.72R                  
HOLLAND        CLOUDY    68  59  73 NE7       29.71R                  
GRAND RAPIDS   CLOUDY    67  59  75 NE10      29.71R                  
IONIA          CLOUDY    63  58  86 N12G18    29.70R                  
KALAMAZOO      CLOUDY    65  59  81 N15       29.69R                  
LUDINGTON      PTSUNNY   72  56  56 N8        29.73R                  
MARSHALL       CLOUDY    64  64 100 N3        29.66R                  
MOUNT PLEASANT PTSUNNY   66  60  82 N8        29.71R                  
MUSKEGON       PTSUNNY   72  59  63 NE8       29.72R                  
SOUTH HAVEN    CLOUDY    64  61  90 N8        29.71R                  
$$
MIZ016>042-202000-
NORTHERN LOWER MICHIGAN
  
CITY           SKY/WX    TMP DP  RH WIND       PRES   REMARKS
ALPENA         FAIR      66  48  52 N15       29.74S                  
BEAVER ISLAND  FAIR      70  39  32 NE7       29.78S                  
BELLAIRE       PTSUNNY   72  44  36 NE8       29.75S                  
CADILLAC       FAIR      73  49  43 NE14      29.74R                  
CHARLEVOIX     FAIR      66  50  55 N8        29.80R                  
FRANKFORT      FAIR      72  51  47 N7        29.76R                  
GAYLORD        FAIR      66  45  46 NE13G20   29.76R                  
GRAYLING       FAIR      68  48  49 NE12G20   29.74R                  
HARBOR SPRINGS PTSUNNY   71  45  39 E7        29.75S                  
HOUGHTON LAKE  FAIR      68  47  46 NE14G23   29.74R                  
MANISTEE       FAIR      73  51  46 NE14      29.72S                  
OSCODA         FAIR      65  48  53 NE17      29.71R                  
PELLSTON       FAIR      74  46  36 N13G20    29.76S                  
ROGERS CITY    FAIR      63  49  61 CALM      29.76F                  
TRAVERSE CITY  PTSUNNY   72  50  45 N14       29.74R                  
$$
MIZ007>008-015-202000-
EASTERN UPPER MICHIGAN
  
CITY           SKY/WX    TMP DP  RH WIND       PRES   REMARKS
KINROSS        FAIR      71  45  39 N9        29.77S                  
MACKINAC ISLAN FAIR      71  44  37 N6        29.76S                  
NEWBERRY       FAIR      70  40  34 NE8G17    29.79S HAZE             
S. S. MARIE    FAIR      74  46  36 N9        29.75F                  
MUNISING         N/A     54  46  74 NE8       29.85R                  
$$
MIZ004>006-011>014-085-202000-
CENTRAL UPPER MICHIGAN
  
CITY           SKY/WX    TMP DP  RH WIND       PRES   REMARKS
MANISTIQUE     FAIR      71  37  28 N12G20    29.78S                  
ESCANABA       PTSUNNY   70  45  40 VRB7      29.80R                  
MENOMINEE      FAIR      69  49  48 E12       29.81S                  
SAWYER-GWINN   SUNNY     63  45  51 NE10      29.85R                  
$$
MIZ001>003-009>011-084-202000-
WESTERN UPPER MICHIGAN
  
CITY           SKY/WX    TMP DP  RH WIND       PRES   REMARKS
IRON MOUNTAIN  FAIR      72  41  32 N16G24    29.83R                  
HOUGHTON       FAIR      69  42  37 E5        29.86S                  
COPPER HARBOR    N/A     50  45  83 CALM      29.86S                  
IRONWOOD       PTSUNNY   69  49  48 NE9       29.86F                  
$$

ABBREVIATIONS USED IN REMARKS
   TC - TEMPERATURE IN CELSIUS
  WCI - WIND CHILL INDEX
   HX - HEAT INDEX
  VSB - VISIBILITY